TimeEDT,TemperatureF,Dew PointF,Humidity,Sea Level PressureIn,VisibilityMPH,Wind Direction,Wind SpeedMPH,Gust SpeedMPH,PrecipitationIn,Events,Conditions,WindDirDegrees,DateUTC
12:15 AM,60.8,60.8,100,29.84,1.8,South,5.8,-,0.01,,Overcast,180,2013-06-27 04:15:00
12:35 AM,60.8,59.0,94,29.84,5.0,Calm,Calm,-,0.01,,Overcast,0,2013-06-27 04:35:00
12:55 AM,60.8,59.0,94,29.84,9.0,South,3.5,-,0.01,,Overcast,190,2013-06-27 04:55:00
1:15 AM,60.8,60.8,100,29.84,10.0,South,3.5,-,N/A,,Overcast,180,2013-06-27 05:15:00
1:35 AM,60.8,60.8,100,29.84,10.0,Calm,Calm,-,N/A,,Overcast,0,2013-06-27 05:35:00
1:55 AM,60.8,60.8,100,29.84,10.0,Calm,Calm,-,N/A,,Overcast,0,2013-06-27 05:55:00
2:15 AM,60.8,60.8,100,29.84,8.0,Calm,Calm,-,N/A,,Overcast,0,2013-06-27 06:15:00
2:35 AM,60.8,59.0,94,29.84,2.5,SW,4.6,-,N/A,,Overcast,220,2013-06-27 06:35:00
2:55 AM,60.8,60.8,100,29.82,2.5,Calm,Calm,-,N/A,,Overcast,0,2013-06-27 06:55:00
3:15 AM,60.8,60.8,100,29.82,1.8,SSW,5.8,-,N/A,,Overcast,200,2013-06-27 07:15:00
3:35 AM,60.8,60.8,100,29.83,1.5,SSW,6.9,-,N/A,,Overcast,210,2013-06-27 07:35:00
3:55 AM,59.0,57.2,94,29.82,3.0,South,4.6,-,N/A,,Overcast,190,2013-06-27 07:55:00
4:15 AM,59.0,57.2,94,29.82,1.5,SSW,5.8,-,N/A,,Overcast,200,2013-06-27 08:15:00
4:35 AM,59.0,59.0,100,29.82,1.5,SSW,3.5,-,N/A,,Overcast,200,2013-06-27 08:35:00
4:55 AM,59.0,59.0,100,29.83,2.0,SSW,4.6,-,N/A,,Overcast,210,2013-06-27 08:55:00
5:15 AM,57.2,57.2,100,29.83,1.0,SSW,5.8,-,N/A,,Overcast,200,2013-06-27 09:15:00
5:35 AM,57.2,57.2,100,29.83,1.0,South,4.6,-,N/A,,Overcast,190,2013-06-27 09:35:00
5:55 AM,57.2,57.2,100,29.82,1.0,South,5.8,-,N/A,,Overcast,190,2013-06-27 09:55:00
6:15 AM,57.2,55.4,94,29.83,2.0,SSW,4.6,-,N/A,,Overcast,210,2013-06-27 10:15:00
6:35 AM,57.2,55.4,94,29.82,4.0,South,4.6,-,N/A,,Overcast,190,2013-06-27 10:35:00
6:55 AM,57.2,57.2,100,29.83,3.0,South,5.8,-,N/A,,Overcast,190,2013-06-27 10:55:00
7:15 AM,57.2,55.4,94,29.84,3.0,SW,6.9,-,N/A,,Overcast,230,2013-06-27 11:15:00
7:35 AM,57.2,57.2,100,29.83,2.0,South,3.5,-,N/A,,Overcast,180,2013-06-27 11:35:00
7:55 AM,57.2,57.2,100,29.83,1.8,SSW,4.6,-,N/A,,Overcast,200,2013-06-27 11:55:00
8:15 AM,57.2,57.2,100,29.84,0.5,South,4.6,-,N/A,,Overcast,190,2013-06-27 12:15:00
8:35 AM,57.2,55.4,94,29.84,0.8,SSW,3.5,-,N/A,,Overcast,210,2013-06-27 12:35:00
8:55 AM,57.2,57.2,100,29.85,1.0,SSW,5.8,-,N/A,,Overcast,210,2013-06-27 12:55:00
9:15 AM,57.2,57.2,100,29.85,1.5,SSW,5.8,-,N/A,,Overcast,210,2013-06-27 13:15:00
9:35 AM,57.2,57.2,100,29.84,1.8,South,4.6,-,N/A,,Overcast,180,2013-06-27 13:35:00
9:55 AM,57.2,57.2,100,29.83,2.5,South,3.5,-,N/A,,Overcast,190,2013-06-27 13:55:00
10:15 AM,59.0,59.0,100,29.84,4.0,South,4.6,-,N/A,,Overcast,190,2013-06-27 14:15:00
10:35 AM,59.0,57.2,94,29.84,9.0,SSE,4.6,-,N/A,,Overcast,160,2013-06-27 14:35:00
10:55 AM,59.0,59.0,100,29.84,2.5,South,3.5,-,N/A,,Overcast,170,2013-06-27 14:55:00
11:15 AM,60.8,59.0,94,29.83,3.0,SSW,5.8,-,N/A,,Overcast,200,2013-06-27 15:15:00
11:35 AM,60.8,60.8,100,29.83,10.0,SSW,4.6,-,N/A,,Overcast,200,2013-06-27 15:35:00
11:55 AM,60.8,60.8,100,29.83,10.0,SSW,4.6,-,N/A,,Overcast,200,2013-06-27 15:55:00
12:15 PM,62.6,60.8,94,29.83,10.0,South,3.5,-,N/A,,Overcast,180,2013-06-27 16:15:00
12:35 PM,62.6,60.8,94,29.84,10.0,SSW,6.9,-,N/A,,Overcast,200,2013-06-27 16:35:00
12:55 PM,62.6,60.8,94,29.83,10.0,SW,4.6,-,N/A,,Overcast,220,2013-06-27 16:55:00
1:15 PM,62.6,60.8,94,29.83,10.0,South,5.8,-,N/A,,Overcast,190,2013-06-27 17:15:00
1:35 PM,64.4,60.8,88,29.83,10.0,South,5.8,-,N/A,,Overcast,190,2013-06-27 17:35:00
1:55 PM,64.4,62.6,94,29.82,10.0,South,5.8,-,N/A,,Overcast,190,2013-06-27 17:55:00
2:15 PM,64.4,62.6,94,29.81,10.0,South,4.6,-,N/A,,Overcast,170,2013-06-27 18:15:00
2:35 PM,66.2,62.6,88,29.81,10.0,Calm,Calm,-,N/A,,Overcast,0,2013-06-27 18:35:00
2:55 PM,64.4,62.6,94,29.81,10.0,South,3.5,-,N/A,,Overcast,180,2013-06-27 18:55:00
3:15 PM,66.2,62.6,88,29.81,10.0,SSE,3.5,-,N/A,,Overcast,160,2013-06-27 19:15:00
3:35 PM,66.2,62.6,88,29.81,10.0,Calm,Calm,-,N/A,,Overcast,0,2013-06-27 19:35:00
3:55 PM,66.2,62.6,88,29.82,10.0,South,3.5,-,N/A,,Overcast,190,2013-06-27 19:55:00
4:15 PM,64.4,62.6,94,29.83,10.0,SSW,4.6,-,N/A,,Overcast,200,2013-06-27 20:15:00
4:35 PM,64.4,62.6,94,29.82,10.0,Calm,Calm,-,N/A,,Overcast,0,2013-06-27 20:35:00
4:55 PM,66.2,62.6,88,29.81,10.0,SE,3.5,-,N/A,,Overcast,140,2013-06-27 20:55:00
5:15 PM,66.2,62.6,88,29.81,10.0,SE,3.5,-,N/A,,Overcast,140,2013-06-27 21:15:00
5:35 PM,66.2,62.6,88,29.81,10.0,Calm,Calm,-,N/A,,Overcast,0,2013-06-27 21:35:00
5:55 PM,64.4,62.6,94,29.81,10.0,SSE,3.5,-,N/A,,Overcast,160,2013-06-27 21:55:00
6:15 PM,64.4,62.6,94,29.80,10.0,SSE,4.6,-,N/A,,Overcast,160,2013-06-27 22:15:00
6:35 PM,64.4,62.6,94,29.81,10.0,South,3.5,-,N/A,,Overcast,180,2013-06-27 22:35:00
6:55 PM,64.4,62.6,94,29.82,10.0,South,3.5,-,N/A,,Overcast,180,2013-06-27 22:55:00
7:15 PM,64.4,62.6,94,29.82,10.0,Calm,Calm,-,N/A,,Overcast,0,2013-06-27 23:15:00
7:35 PM,62.6,60.8,94,29.82,4.0,Calm,Calm,-,N/A,,Overcast,0,2013-06-27 23:35:00
7:55 PM,62.6,60.8,94,29.83,2.0,East,3.5,-,N/A,,Overcast,90,2013-06-27 23:55:00
8:15 PM,62.6,60.8,94,29.83,8.0,ENE,3.5,-,N/A,,Overcast,70,2013-06-28 00:15:00
8:35 PM,60.8,60.8,100,29.83,10.0,East,4.6,-,N/A,,Overcast,80,2013-06-28 00:35:00
8:55 PM,60.8,59.0,94,29.84,10.0,East,3.5,-,N/A,,Overcast,80,2013-06-28 00:55:00
9:15 PM,60.8,59.0,94,29.84,6.0,East,4.6,-,N/A,,Overcast,80,2013-06-28 01:15:00
9:35 PM,59.0,57.2,94,29.85,5.0,ESE,3.5,-,N/A,,Overcast,120,2013-06-28 01:35:00
9:55 PM,59.0,57.2,94,29.85,3.0,Calm,Calm,-,N/A,,Overcast,0,2013-06-28 01:55:00
10:15 PM,59.0,57.2,94,29.85,10.0,Calm,Calm,-,N/A,,Overcast,0,2013-06-28 02:15:00
10:35 PM,59.0,57.2,94,29.84,10.0,Calm,Calm,-,N/A,,Overcast,0,2013-06-28 02:35:00
10:55 PM,59.0,57.2,94,29.84,2.5,Calm,Calm,-,N/A,,Overcast,0,2013-06-28 02:55:00
11:15 PM,59.0,57.2,94,29.84,10.0,Calm,Calm,-,N/A,,Overcast,0,2013-06-28 03:15:00
11:35 PM,59.0,57.2,94,29.84,9.0,ESE,4.6,-,N/A,,Overcast,120,2013-06-28 03:35:00
11:55 PM,59.0,57.2,94,29.84,10.0,Calm,Calm,-,N/A,,Overcast,0,2013-06-28 03:55:00